Jamestown, ND

5:25 PM CDT on September 21, 2017 (GMT -0500)
Jamestown Municipal

Weather History for KJMS - October, 2011

Change the Weather History Date:

Sunday, October 2, 2011

  Actual Average Record
Temperature  
Mean Temperature 64 °F 50 °F  
Max Temperature 82 °F 63 °F 88 °F (1914)
Min Temperature 45 °F 38 °F 18 °F (1936)
Degree Days  
Heating Degree Days 1 15  
Month to date heating degree days 7 29  
Since 1 July heating degree days 234 347  
Cooling Degree Days 0 0  
Month to date cooling degree days 0 0  
Year to date cooling degree days 480 445  
Growing Degree Days 14 (Base 50)    
Moisture  
Dew Point 44 °F    
Average Humidity 57    
Maximum Humidity 86    
Minimum Humidity 28    
Precipitation  
Precipitation 0.00 in 0.06 in 0.81 in (1994)
Month to date precipitation 0.00 0.12  
Year to date precipitation 20.31 16.31  
Sea Level Pressure  
Sea Level Pressure 29.97 in    
Wind  
Wind Speed 9 mph (SSE)    
Max Wind Speed 18 mph    
Max Gust Speed 25 mph    
Visibility 10 miles    
Events      
T = Trace of Precipitation, MM = Missing Value Source: NWS Daily Summary

Daily Weather History Graph

Daily Weather History Graph

Search for Another Location

Airport or City:

Trip Planner

Search our weather history database for the weather conditions in past years. The results will help you decide how hot, cold, wet, or windy it might be!

Date:

Astronomy

Oct. 02, 2011 Rise Set
Actual Time 7:34 AM CDT 7:12 PM CDT
Civil Twilight 7:04 AM CDT 7:43 PM CDT
Nautical Twilight 6:28 AM CDT 8:18 PM CDT
Astronomical Twilight 5:53 AM CDT 8:54 PM CDT
Moon 2:04 PM CDT (10/2) 10:50 PM CDT (10/2)
Length of Visible Light 12h 38m
Length of Day
11h 38m
Waxing Crescent, 35% of the Moon is Illuminated
Oct 2
Waxing Crescent
Oct 3
First Quarter
Oct 11
Full
Oct 19
Last Quarter
Oct 26
New

Hourly Weather History & Observations

Time (CDT) Temp. Windchill Dew Point Humidity Pressure Visibility Wind Dir Wind Speed Gust Speed Precip Events Conditions
12:56 AM 53.6 °F - 42.8 °F 67% 29.97 in 10.0 mi South 8.1 mph - N/A   Clear
1:56 AM 52.0 °F - 42.1 °F 69% 29.97 in 10.0 mi South 6.9 mph - N/A   Clear
2:56 AM 48.0 °F - 41.0 °F 77% 29.98 in 10.0 mi SSE 4.6 mph - N/A   Clear
3:56 AM 46.9 °F - 41.0 °F 80% 29.99 in 10.0 mi Calm Calm - N/A   Clear
4:56 AM 46.0 °F 43.9 °F 41.0 °F 83% 29.98 in 10.0 mi South 4.6 mph - N/A   Clear
5:56 AM 46.0 °F 43.9 °F 41.0 °F 83% 29.99 in 10.0 mi SSE 4.6 mph - N/A   Clear
6:56 AM 46.9 °F - 42.1 °F 83% 29.99 in 10.0 mi South 8.1 mph - N/A   Clear
7:56 AM 48.0 °F - 42.1 °F 80% 30.00 in 10.0 mi South 9.2 mph - N/A   Clear
8:56 AM 52.0 °F - 43.0 °F 71% 30.01 in 10.0 mi South 9.2 mph - N/A   Clear
9:56 AM 57.2 °F - 44.6 °F 63% 29.99 in 10.0 mi South 9.2 mph - N/A   Clear
10:56 AM 63.0 °F - 45.0 °F 52% 29.99 in 10.0 mi SSE 8.1 mph - N/A   Clear
11:56 AM 68.0 °F - 46.0 °F 45% 29.99 in 10.0 mi SSE 9.2 mph - N/A   Clear
12:56 PM 73.9 °F - 46.0 °F 37% 29.97 in 10.0 mi South 11.5 mph - N/A   Clear
1:56 PM 79.0 °F - 46.0 °F 31% 29.96 in 10.0 mi SSE 12.7 mph - N/A   Clear
2:56 PM 81.0 °F - 45.0 °F 28% 29.95 in 10.0 mi South 17.3 mph 23.0 mph N/A   Clear
3:56 PM 82.0 °F - 46.0 °F 28% 29.94 in 10.0 mi South 13.8 mph - N/A   Clear
4:56 PM 80.6 °F - 46.4 °F 30% 29.94 in 10.0 mi SSE 15.0 mph - N/A   Clear
6:56 PM 72.0 °F - 46.9 °F 41% 29.94 in 10.0 mi SSE 9.2 mph - N/A   Clear
7:56 PM 63.0 °F - 46.0 °F 54% 29.96 in 10.0 mi South 6.9 mph - N/A   Clear
8:56 PM 62.6 °F - 46.4 °F 55% 29.95 in 10.0 mi South 9.2 mph - N/A   Clear
9:56 PM 63.0 °F - 44.1 °F 50% 29.96 in 10.0 mi SE 8.1 mph - N/A   Clear
10:56 PM 60.8 °F - 44.6 °F 55% 29.96 in 10.0 mi SSE 8.1 mph - N/A   Clear
11:56 PM 60.1 °F - 45.0 °F 57% 29.97 in 10.0 mi South 10.4 mph - N/A   Clear